Orbital Elements at Epoch 2459000.5 (2020-May-31.0) TDB
Reference: JPL 14 (heliocentric ecliptic J2000)
Element | Value | Uncertainty (1-sigma) | Units |
e | .0314924547020489 | 3.9728e-08 | |
a | 2.211613346465646 | 1.4712e-08 | au |
q | 2.14196421333363 | 8.7829e-08 | au |
i | 4.772587413744292 | 1.0339e-05 | deg |
node | 187.6476077478676 | 5.6149e-05 | deg |
peri | 261.8093130729159 | 0.00017851 | deg |
M | 298.371432057614 | 0.00017018 | deg |
tp | 2459206.156199325236 (2020-Dec-22.65619933) | 0.00056818 | TDB |
period | 1201.329744126105 3.29 | 1.1988e-05 3.282e-08 | d yr |
n | .2996679319397676 | 2.9903e-09 | deg/d |
Q | 2.281262479597662 | 1.5176e-08 | au |
|
| | Orbit Determination Parameters
Additional Information
|